sat.trackr.live / text

‹ back to catalog

STARLINK-35518

NORAD 66198 · 2025-243X

PAYLOAD ACTIVE UNKNOWN

§ Identity

Operator
Country
US
Launch date
2025-10-26
Launch site
AFETR
Launch vehicle
Mass (kg)
RCS (m²)

Purposes: comms

External: N2YO · Heavens-Above · Gunter

§ Orbital elements

Epoch: 2026-09-20T04:06:50.178240Z

Period
93.85 min
Inclination
53.1612°
Eccentricity
0.0001320
Mean motion
15.34400694 rev/d
Perigee alt
461.8 km
Apogee alt
463.6 km
Semi-major
6,840.8 km
B*
6.0870e-4
RAAN
60.9241°
Arg perigee
89.6389°
Mean anomaly
270.4765°
Rev number
5,044

§ Raw data

STARLINK-355181 66198U 25243X   26263.17141410  .00020246  00000+0  60870-3 0  99912 66198  53.1612  60.9241 0001320  89.6389 270.4765 15.34400694 50441

JSON: /api/v1/satellites/66198 · /tle

For live sub-satellite position, see the globe view (requires WebGL).

§ Visibility from observer

Set your observer location to see the next 7 days of passes ≥ 10°. The values pass through the URL so the page stays shareable.

No JS? Fill the form by hand. The geolocation button needs JavaScript.